TEVEL2-3

Last updated on Thu Oct 30 2025 00:03:11 GMT+0000 (Coordinated Universal Time)

1 63218U 25052J 25302.23423057 .00022301 00000+0 90788-3 0 9994 2 63218 97.4095 194.2737 0001972 176.7879 183.3371 15.24508402 34793
UTC large
Height (km)
Speed (km/s)
/
Latitude / Longitude
Inclination (degrees)
Orbital Period (minutes)
Azimuth
Elevation
Range (km)
Doppler Factor

Next 0 passes for location: London (51.5072 / 0.1276)

Sorry there are no passes over London.